Flag for U.S.A. Weather past 2 weeks in Fairfax, Virginia, U.S.A.

Now
81 °F

Broken clouds.


Feels Like: 84 °F
Forecast: 65 / 82 °F
Wind: 3 mph from South

Location: Washington-Dulles International Airport

Current Time: Jul 5, 2015 at 6:03:50 PM

Latest Report: Jul 5, 2015 at 4:52 PM


Visibility: 10 mi

Pressure: 30.10 "Hg

Humidity: 65%

Dew point: 68 °F

Location of FairfaxLocation

Historic Weather in Fairfax — Graph

°F

Fairfax temperature yesterday

Maximum temperature yesterday: 79 °F (at 1:52 PM)
Minimum temperature yesterday: 68 °F (at 8:52 AM)
Average temperature yesterday: 72 °F

Past Weeks' High & Low Weather Summary

 TemperatureHumidityPressure
High93 °F (Jun 23, 3:52 PM)100% (Jul 1, 6:56 AM)30.15 "Hg (Jul 1, 6:56 AM)
Low55 °F (Jun 29, 3:52 AM)36% (Jun 29, 2:52 PM)29.67 "Hg (Jun 28, 3:52 AM)
Average73 °F75%29.92 "Hg
* Reported Jun 20 4:52 PM — Jul 5 4:52 PM, Fairfax, Weather by CustomWeather, © 2015

Note: Actual official high and low records may vary slightly from our data, if they occured in-between our weather recording intervals... More about our weather records

Advertising

Fairfax weather history for previous 24 hours

 ConditionsComfort  
Time TempWeatherWind HumidityBarometerVisibility
4:52 PM
Sun, Jul 5
81 °FBroken clouds.3 mph65%30.10 "Hg10 mi
3:52 PM80 °FBroken clouds.5 mph69%30.11 "Hg10 mi
2:52 PM80 °FBroken clouds.3 mph69%30.12 "Hg10 mi
1:52 PM80 °FCloudy.6 mph69%30.14 "Hg10 mi
12:52 PM78 °FPartly sunny.3 mph74%30.15 "Hg10 mi
11:52 AM75 °FPartly sunny.3 mph79%30.15 "Hg10 mi
10:52 AM72 °FLow clouds.No wind81%30.15 "Hg7 mi
9:52 AM70 °FFog.No wind87%30.15 "Hg4 mi
8:52 AM67 °FFog.No wind93%30.15 "Hg2 mi
7:52 AM66 °FFog.6 mph96%30.13 "Hg1 mi
6:52 AM66 °FFog.3 mph96%30.11 "Hg1 mi
5:52 AM66 °FFog.3 mph100%30.08 "Hg1 mi
5:01 AM66 °FFog.5 mph94%30.08 "Hg2 mi
3:52 AM66 °FFog.No wind96%30.06 "Hg4 mi
2:52 AM68 °FFog.3 mph93%30.05 "Hg5 mi
1:52 AM69 °FFog.5 mph90%30.05 "Hg5 mi
12:52 AM69 °FFog.No wind93%30.04 "Hg3 mi
11:52 PM
Sat, Jul 4
71 °FFog.5 mph93%30.04 "Hg2 mi
10:52 PM70 °FFog.No wind97%30.02 "Hg1 mi
9:52 PM71 °FPassing clouds.No wind93%29.99 "Hg10 mi
8:52 PM71 °FBroken clouds.No wind96%29.97 "Hg10 mi
7:52 PM73 °FBroken clouds.3 mph90%29.96 "Hg10 mi
6:52 PM75 °FMore clouds than sun.3 mph82%29.93 "Hg10 mi
Weather by CustomWeather, © 2015

See weather overviewHow to use our weather pages